Regional Weather Roundup
Issued by NWS Wilmington, NC

Home | Current Version | Previous Version | Text Only | Print | Product List | Glossary On
Versions: 1 2 3 4 5 6 7 8 9 10 11 12 13 14 15 16 17 18 19 20 21 22 23 24 25 26 27 28 29 30 31 32 33 34 35 36 37 38 39 40 41 42 43 44 45 46 47 48 49 50
000
ASUS42 KILM 251910
RWRILM
RWRILM
REGIONAL HOURLY WEATHER ROUNDUP
NATIONAL WEATHER SERVICE WILMINGTON NC
300 PM EDT FRI JUL 25 2014

NOTE: "FAIR" INDICATES FEW OR NO CLOUDS BELOW 12,000 FEET WITH NO
SIGNIFICANT WEATHER AND/OR OBSTRUCTIONS TO VISIBILITY.

...............WFO WILMINGTON COUNTY WARNING AREA...............

......COASTAL NC AND SC COUNTIES......

CITY           SKY/WX    TMP DP  RH WIND       PRES   REMARKS
WILMINGTON     CLOUDY    80  72  76 E7        30.02F
SOUTHPORT      CLOUDY    81  73  77 E5        30.02F
N MYRTLE BEACH PTSUNNY   80  73  79 SE7       30.01F
MYRTLE BEACH   NOT AVBL

......INLAND NC AND SC COUNTIES.......

CITY           SKY/WX    TMP DP  RH WIND       PRES   REMARKS
LUMBERTON      CLOUDY    83  70  64 E7        29.99F
ELIZABETHTOWN  CLOUDY    83  70  64 E6        30.01F
WHITEVILLE     CLOUDY    80  72  75 SE7       30.02R
FLORENCE       CLOUDY    82  72  71 SE7       29.99F
DARLINGTON     CLOUDY    82  72  69 E3        30.01F

....................REST OF NORTH CAROLINA......................

.........EASTERN NC.........

CITY           SKY/WX    TMP DP  RH WIND       PRES   REMARKS
CAPE HATTERAS  PTSUNNY   81  69  67 CALM      30.04S
JACKSONVILLE   PTSUNNY   82  70  65 E8        30.02F
MOREHEAD CITY  CLOUDY    81  71  71 E10       30.02F
KENANSVILLE    SUNNY     81  67  64 SE5       30.02F
NEW BERN       CLOUDY    84  68  58 E6        30.03F
ELIZABETH CITY SUNNY     82  62  50 NE7       30.03F

.........CENTRAL NC.........

CITY           SKY/WX    TMP DP  RH WIND       PRES   REMARKS
RALEIGH DURHAM PTSUNNY   80  62  54 E6        30.03F
ROCKY MOUNT    SUNNY     83  65  54 VRB3      30.02F
ROANOKE RAPIDS NOT AVBL
FAYETTEVILLE   CLOUDY    82  68  62 E3        30.00F
HOFFMAN        MOSUNNY   85  68  56 VRB3      30.01F

.........WESTERN NC.........

CITY           SKY/WX    TMP DP  RH WIND       PRES   REMARKS
CHARLOTTE      MOSUNNY   83  65  54 SE3       30.02F
GREENSBORO     PTSUNNY   79  65  62 CALM      30.04F
HICKORY        NOT AVBL
BOONE          NOT AVBL
ASHEVILLE      NOT AVBL

.....................REST OF SOUTH CAROLINA.....................

.........EASTERN SC.........

CITY           SKY/WX    TMP DP  RH WIND       PRES   REMARKS
CHARLESTON     TSTM      77  72  84 SE7       29.99R
BEAUFORT MCAS  TSTM      92  72  51 W14       29.95F HX  99
HILTON HEAD    NOT AVBL

.........CENTRAL SC.........

CITY           SKY/WX    TMP DP  RH WIND       PRES   REMARKS
COLUMBIA       PTSUNNY   88  71  57 N6        29.97F HX  94
ORANGEBURG     LGT RAIN  80  76  87 E6        29.98F
SUMTER SHAW    PTSUNNY   82  75  78 N6        29.97F

.........WESTERN SC.........

CITY           SKY/WX    TMP DP  RH WIND       PRES   REMARKS
GREENVILLE     NOT AVBL
ROCK HILL      MOSUNNY   82  67  60 SE5       30.02F
ANDERSON       PTSUNNY   83  69  62 S8        30.01F
CLEMSON        NOT AVBL
GREENWOOD      MOSUNNY   84  69  60 VRB6      30.02F


...................COASTAL AND OFFSHORE REPORTS..................

................LOCAL PIERS AND NC RESERVE................


STATION/POSITION TIME  SKY/WX   TEMP    WIND        PRES    VSBY
                                AIR SEA DIR/SP/G
                 (UTC)          (F)     (DEG/KT/KT) (MB)    (MI)
JOHNY MRCER PIER 1900            77 83   70/  9/ 11 1016.2R
NC RESRV MASNBRO 1800            79      70/  4     1017.0S
OCEAN CREST PIER 1900            79 84  120/ 11/ 12 1015.4F
SPRINGMAID  PIER 1900            79 84   80/ 10/ 11 1016.7R


................COASTAL AND OFFSHORE BUOYS................


STATION/POSITION TIME  SKY/WX   TEMP    WIND        PRES    VSBY
                                AIR SEA DIR/SP/G
                 (UTC)          (F)     (DEG/KT/KT) (MB)    (MI)
DIMNDSHOAL 41025 1900                   VRB  6/  8  1017.3R
WVE H/P(F/S)=  2/ 7 WND WVE H/P(F/S)=  2/ 3 SWL H/P/D(F/S/D)=  2/160/ 7

CAPE LOOKOUT     1800            77      80/  9/ 10 1017.4R
ONSLOW BAY 41036 1900            78 81   80/ 12/ 14 1017.1F
WVE H/P(F/S)=  3/ 6 WND WVE H/P(F/S)=  2/ 3 SWL H/P/D(F/S/D)=  3/200/ 6

5 WRITEBCH 41038 1800            74 81   90/ 10/ 12   N/A
MASONBORO  41110 1900               82                N/A
WVE H/P(F/S)=  2/ 6 WND WVE H/P(F/S)=  2/ 6

WILM HARBR 41108 NOT AVBL
27WRITEBCH 41037 NOT AVBL
FRYING PAN 41013 NOT AVBL
SUNST NRSH 41024 1800            83     140/  8/  8 1016.5F
CAPRS NRSH 41029 1800            83     180/ 16/ 19   N/A
EDISTO     41004 1900            82 83  210/ 14/ 16 1015.2F
WVE H/P(F/S)=  3/ 5 WND WVE H/P(F/S)=  3/ 5 SWL H/P/D(F/S/D)=  2/15



..........OFFSHORE BUOYS BEYOND 100 NM OFFSHORE...........
.....IN A TRIANGLE---HAT TO BERMUDA TO BAHAMAS TO HAT.....


STATION/POSITION TIME  SKY/WX   TEMP    WIND        PRES    VSBY
                                AIR SEA DIR/SP/G
                 (UTC)          (F)     (DEG/KT/KT) (MB)    (MI)
150E HAT   41001 NOT AVBL
W BERMUDA  41048 1837            83 83  220/ 16/ 17 1017.9F
WVE H/P(F/S)=  6/ 7 WND WVE H/P(F/S)=  5/ 7 SWL H/P/D(F/S/D)=  2/140/ 9

ATLANTIC S 41049 1803            82 83  160/  6/  8 1022.5
WVE H/P(F/S)=  3/ 8 WND WVE H/P(F/S)=  2/ 4 SWL H/P/D(F/S/D)=  3/130/ 8

E BAHAMAS  41046 1800            83 84  120/ 12/ 14 1019.8
WVE H/P(F/S)=  5/ 8 WND WVE H/P(F/S)=  3/ 5 SWL H/P/D(F/S/D)=  3/120/ 8

NE BAHAMAS 41047 1752            83 86  200/  6/  8 1021.1
WVE H/P(F/S)=  3/ 6 WND WVE H/P(F/S)=  2/ 3 SWL H/P/D(F/S/D)=  3/130/ 6

120E CANVRL41010 1900            84 85  200/  8/ 10 1019.3F
WVE H/P(F/S)=  2/ 8 WND WVE H/P(F/S)=  2/ 4 SWL H/P/D(F/S/D)=  2/140/ 8


END



USA.gov is the U.S. government's official web portal to all federal, state and local government web resources and services.